Probability
0 0 0 0 0 0 0 0 0 0 0 0 0 0 0 0 1 2 2 3 3 3 3 3 3 5 8 10 10 8 7 6 6 5 4 3 1 1 2 3 4 3 1 0
0 0 0 0 0 0 0 0 0 0 0 0 0 0 0 0 0 1 1 2 3 3 3 3 3 4 7 9 10 9 7 6 4 4 3 3 2 1 1 2 3 3 1 0
0 0 0 0 0 0 0 0 0 0 0 0 0 0 0 0 0 0 0 1 2 3 3 3 3 3 5 8 10 9 8 5 3 3 3 3 3 2 1 1 1 2 2 1
0 0 0 0 0 0 0 0 0 0 0 0 0 0 0 0 0 0 0 0 1 2 3 3 3 3 5 8 10 10 8 6 4 3 3 3 3 3 2 1 1 1 1 0
0 0 0 0 0 0 0 0 0 0 0 0 0 0 0 0 0 0 0 0 0 1 2 3 3 3 5 8 9 10 9 7 5 3 3 3 3 3 2 1 0 0 0 0
0 0 0 0 0 0 0 0 0 0 0 0 0 0 0 0 0 0 0 0 0 0 1 2 3 4 5 7 8 9 8 7 6 4 3 3 2 2 1 0 0 0 0 0
0 0 0 0 0 0 0 0 0 0 0 0 0 0 0 0 0 0 0 0 0 0 0 1 1 3 4 6 7 7 7 6 5 5 3 1 1 1 1 0 0 0 0 0
0 0 0 0 0 0 0 0 0 0 0 0 0 0 0 0 0 0 0 0 0 0 0 0 0 1 2 3 5 6 6 5 4 4 3 1 1 0 0 0 0 0 0 0
0 0 0 0 0 0 0 0 0 0 0 0 0 0 0 0 0 0 0 0 0 0 0 0 0 0 0 1 3 4 5 4 3 3 3 3 2 1 0 0 0 0 0 0
0 0 0 0 0 0 0 0 0 0 0 0 0 0 0 0 0 0 0 0 0 0 0 0 0 0 0 1 2 3 3 3 3 3 3 3 2 1 0 0 0 0 0 0
0 0 0 0 0 0 0 0 0 0 0 0 0 0 0 0 0 0 0 0 0 0 0 0 0 0 0 1 2 2 1 1 1 2 3 3 2 1 0 0 0 0 0 0
0 0 0 0 0 0 0 0 0 0 0 0 0 0 0 0 0 0 0 0 0 0 0 0 0 0 0 0 1 1 0 0 0 1 1 2 2 1 1 0 0 0 0 0
0 0 0 0 0 0 0 0 0 0 0 0 0 0 0 0 0 0 0 0 0 0 0 0 0 0 0 0 0 0 0 0 0 0 0 1 2 2 2 1 0 0 0 0
0 0 0 0 0 0 0 0 0 0 0 0 0 0 0 0 0 0 0 0 0 0 0 0 0 0 0 0 0 0 0 0 0 0 0 0 1 1 1 1 0 0 0 0
0 0 0 0 0 0 0 0 0 0 0 0 0 0 0 0 0 0 0 0 0 0 0 0 0 0 0 0 0 0 0 0 0 0 0 0 0 0 0 0 0 0 0 0
0 0 0 0 0 0 0 0 0 0 0 0 0 0 0 0 0 0 0 0 0 0 0 0 0 0 0 0 0 0 0 0 0 0 0 0 0 0 0 0 0 0 0 0
0 0 0 0 0 0 0 0 0 0 0 0 0 0 0 0 0 0 0 0 0 0 0 0 0 0 0 0 0 0 0 0 0 0 0 0 0 0 0 0 0 0 0 0
0 0 0 0 0 0 0 0 0 0 0 0 0 0 0 0 0 0 0 0 0 0 0 0 0 0 0 0 0 0 0 0 0 0 0 0 0 0 0 0 0 0 0 0
0 0 0 0 0 0 0 0 0 0 0 0 0 0 0 0 0 0 0 0 0 0 0 0 0 0 0 0 0 0 0 0 0 0 0 0 0 0 0 0 0 0 0 0
0 0 0 0 0 0 0 0 0 0 0 0 0 0 0 0 0 0 0 0 0 0 0 0 0 0 0 0 0 0 0 0 0 0 0 0 0 0 0 0 0 0 0 0
0 0 0 0 0 0 0 0 0 0 0 0 0 0 0 0 0 0 0 0 0 0 0 0 0 0 0 0 0 0 0 0 0 0 0 0 0 0 0 0 0 0 0 0
0 0 0 0 0 0 0 0 0 0 0 0 0 0 0 0 0 0 0 0 0 0 0 0 0 0 0 0 0 0 0 0 0 0 0 0 0 0 0 0 0 0 0 0
0 0 0 0 0 0 0 0 0 0 0 0 0 0 0 0 0 0 0 0 0 0 0 0 0 0 0 0 0 0 0 0 0 0 0 0 0 0 0 0 0 0 0 0
0 0 0 0 0 0 0 0 0 0 0 0 0 0 0 0 0 0 0 0 0 0 0 0 0 0 0 0 0 0 0 0 0 0 0 0 0 0 0 0 0 0 0 0
0 0 0 0 0 0 0 0 0 0 0 0 0 0 0 0 0 0 0 0 0 0 0 0 0 0 0 0 0 0 0 0 0 0 0 0 0 0 0 0 0 0 0 0
0 0 0 0 0 0 0 0 0 0 0 0 0 0 0 0 0 0 0 0 0 0 0 0 0 0 0 0 0 0 0 0 0 0 0 0 0 0 0 0 0 0 0 0
Wind_Speed
3 3 0 2 3 3 2 4 6 6 2 2 6 8 7 4 2 2 2 1 1 1 1 2 2 2 2 3 3 3 3 3 2 1 1 1 1 1 0 1 1 1 1 0
4 1 3 1 1 2 2 5 6 5 2 3 5 8 6 3 3 3 3 2 1 1 2 2 3 3 3 3 2 2 3 3 2 1 1 1 1 1 1 0 1 1 1 1
1 2 2 1 1 2 4 5 5 5 4 2 3 6 4 2 0 1 0 1 0 0 2 3 3 3 3 3 3 3 2 3 3 2 1 1 1 1 1 1 1 1 2 1
1 3 2 2 2 1 6 4 5 5 2 4 1 5 5 2 2 1 2 2 1 1 2 2 3 2 3 3 3 3 2 2 3 2 1 1 1 1 2 1 1 1 2 1
2 1 2 2 3 2 4 5 5 5 3 3 2 4 7 1 3 4 3 2 2 2 2 2 3 2 2 3 2 2 2 2 2 2 1 1 1 2 2 2 1 1 2 2
2 1 1 1 3 1 3 4 2 1 1 4 5 5 6 3 5 4 3 2 2 2 2 3 3 2 2 3 3 3 2 3 2 2 2 1 1 1 2 2 1 1 1 1
5 3 2 2 3 4 4 3 3 4 2 6 3 4 7 4 3 3 2 2 2 2 2 3 3 3 3 4 4 3 3 3 3 2 2 1 1 1 1 2 2 1 1 2
3 5 2 2 1 2 1 2 3 3 4 5 2 5 5 3 2 1 0 1 1 2 3 3 3 3 3 3 4 4 4 4 3 2 2 2 2 1 1 2 2 2 2 2
1 5 3 3 1 1 0 1 2 2 2 4 5 5 6 3 3 3 2 3 3 3 3 3 3 3 3 3 4 3 4 4 4 3 3 2 2 2 2 2 2 2 2 2
3 4 4 4 2 2 0 2 2 2 2 5 5 4 4 5 5 5 4 4 4 4 4 4 4 4 4 3 4 4 4 4 4 4 3 3 2 2 2 2 2 2 2 2
2 2 4 3 1 2 1 1 1 1 2 3 4 6 3 3 3 3 4 4 4 4 4 4 4 4 4 4 4 5 5 5 5 5 4 4 3 3 3 2 2 2 2 2
1 3 3 5 3 1 2 2 3 2 3 3 3 7 2 0 2 3 4 5 5 4 4 4 4 4 5 5 5 5 5 5 5 5 5 4 4 3 3 3 3 2 2 2
3 3 3 6 3 3 1 1 1 2 1 2 3 8 3 4 5 5 5 6 6 5 5 5 4 5 5 5 5 5 5 6 6 5 5 5 5 4 4 3 3 3 3 2
4 3 5 6 5 2 3 3 1 3 3 4 7 9 8 7 7 6 6 6 5 4 5 5 5 5 5 5 5 5 6 6 6 5 5 5 6 5 4 4 3 3 3 3
3 2 4 6 6 4 5 6 4 5 6 7 8 8 11 8 6 5 5 6 6 6 7 7 6 6 6 6 6 6 6 6 6 5 5 6 6 5 5 4 3 3 3 4
2 2 1 4 4 4 7 7 6 6 6 8 8 11 8 7 4 4 5 6 6 7 7 7 7 7 7 6 6 7 7 7 6 5 6 6 6 6 5 5 4 3 3 4
2 3 1 4 4 4 7 6 6 4 4 5 8 9 6 6 6 5 5 5 6 6 7 7 7 7 7 6 6 6 7 6 6 6 6 7 6 6 6 6 5 5 4 4
5 4 2 2 3 5 7 2 3 4 5 5 6 6 5 6 6 5 4 4 5 6 7 7 7 7 6 6 6 6 6 6 6 6 7 7 7 6 6 5 5 5 4 4
4 5 2 1 2 9 7 2 3 3 6 5 6 7 6 5 4 5 3 3 4 6 6 6 6 6 6 6 6 6 6 6 6 6 7 7 7 7 6 6 6 5 5 4
3 3 3 2 3 8 6 2 1 2 6 4 4 5 4 3 3 6 5 5 6 6 5 6 6 5 5 5 5 5 6 6 6 7 7 7 7 7 6 6 6 5 5 5
1 1 3 4 5 10 6 2 3 2 7 3 3 4 3 4 5 6 6 6 5 6 6 6 5 5 5 5 5 5 6 6 7 7 7 7 7 7 6 6 5 5 5 5
6 5 5 4 5 10 3 4 6 7 3 2 3 3 4 5 5 5 6 6 6 6 6 5 5 6 5 5 5 6 7 7 7 7 7 7 7 6 5 5 5 5 5 4
7 8 6 9 9 4 4 6 4 2 3 4 3 4 4 4 5 6 5 5 6 6 6 5 5 6 6 5 4 6 7 7 7 7 7 6 7 5 5 5 5 5 4 3
4 2 3 5 8 6 5 4 4 4 5 5 4 4 3 5 6 6 5 5 5 5 6 5 5 6 6 6 5 6 7 7 6 6 6 6 5 5 5 4 4 4 4 4
5 4 3 6 6 4 5 6 6 4 4 4 4 4 5 5 6 5 5 5 5 5 5 5 5 6 7 7 6 7 6 6 6 6 6 5 5 4 4 4 4 5 4 5
5 7 7 8 6 5 6 5 4 5 5 5 5 5 5 4 5 5 5 5 4 5 5 5 6 6 7 7 7 7 6 6 6 6 5 4 4 3 4 4 4 7 7 10
Wind_Direction
22 65 162 225 206 212 221 237 257 260 255 265 250 266 274 260 227 203 211 208 224 258 298 357 357 1 10 8 8 8 12 358 359 356 2 338 331 309 342 21 36 35 358 330
33 328 259 245 235 241 249 262 260 278 271 267 261 271 273 248 212 194 182 188 224 339 346 356 358 7 3 354 349 354 7 354 344 323 293 257 282 290 262 317 22 23 8 346
165 271 315 354 315 296 266 243 244 268 303 290 291 290 286 290 57 64 125 185 187 284 319 335 344 342 345 343 337 336 343 350 344 341 349 356 8 332 330 356 359 352 358 333
299 312 344 4 321 278 270 248 252 268 290 278 255 281 279 283 322 328 315 326 302 312 309 328 331 326 321 316 322 330 338 348 348 347 35 71 31 337 310 292 309 335 357 342
293 334 358 319 292 265 261 291 275 256 227 271 260 238 281 323 282 280 273 274 288 286 283 309 310 297 309 321 326 333 333 338 350 347 11 69 1 342 326 321 335 351 355 349
297 314 340 293 315 285 302 315 316 12 124 254 228 204 273 243 245 268 278 274 286 289 296 310 319 334 339 341 344 349 343 338 344 342 360 23 349 345 333 331 327 328 335 331
330 320 344 7 345 353 21 36 4 343 316 250 219 211 253 267 264 227 233 271 290 292 304 325 342 349 351 348 345 344 342 337 339 338 341 334 295 257 267 287 277 291 308 313
335 304 316 355 298 271 293 140 164 237 254 282 298 235 253 299 323 349 267 292 308 316 314 323 324 331 338 339 338 339 336 332 334 332 316 309 291 264 267 266 263 257 267 269
255 281 330 336 333 128 170 206 181 166 290 274 269 284 301 354 1 2 359 352 324 317 319 321 324 330 335 337 335 334 332 330 332 324 311 301 293 284 282 280 276 263 277 276
171 275 306 327 2 4 109 146 90 134 255 277 287 273 276 306 316 335 334 320 317 325 332 332 335 335 338 335 333 341 338 324 327 329 321 314 304 299 293 285 294 287 283 280
129 204 309 344 288 273 38 73 124 183 195 214 277 275 261 243 282 295 298 303 312 314 325 333 335 336 342 350 353 350 343 341 343 340 333 328 320 319 311 296 295 292 283 269
115 127 274 265 263 292 172 186 150 180 257 218 238 273 300 290 315 313 314 325 330 327 335 341 342 348 353 353 354 351 344 342 339 339 338 337 331 328 324 317 306 297 275 264
122 108 341 334 333 3 357 306 210 162 162 221 229 264 338 359 341 334 329 326 326 332 339 342 349 354 352 347 345 343 341 336 336 340 341 341 334 330 319 315 317 307 290 274
114 140 182 221 249 245 271 283 249 155 201 243 239 262 296 315 314 319 322 322 323 330 334 341 344 344 344 341 339 336 335 334 333 336 339 336 328 321 314 311 313 307 307 289
114 203 234 254 268 263 258 265 240 212 218 228 255 263 280 292 293 300 311 322 332 336 341 342 341 336 336 339 339 338 334 332 331 332 333 326 323 319 317 314 308 307 309 298
122 197 267 282 270 265 277 270 247 241 241 245 266 277 279 295 306 315 316 324 327 330 333 334 334 334 334 334 333 333 332 329 330 328 325 324 326 324 322 318 308 306 305 297
169 160 216 278 309 337 282 251 218 219 225 215 239 257 298 315 314 310 305 314 316 320 326 327 325 322 322 323 324 321 322 325 330 328 327 326 325 324 326 324 322 313 300 295
163 161 188 286 11 258 246 220 192 214 252 233 245 268 284 284 287 291 286 298 311 317 320 319 318 318 317 319 322 320 324 328 328 327 326 325 325 324 322 320 317 311 300 291
163 162 172 193 262 275 285 244 178 199 270 239 242 273 294 311 321 303 296 296 294 300 302 302 303 303 310 317 320 324 329 332 331 326 323 321 319 317 317 318 311 305 305 297
78 117 152 171 219 252 256 252 182 117 281 255 230 260 289 331 313 288 310 309 305 308 307 308 308 310 314 315 319 324 323 327 325 318 313 313 315 310 311 309 305 302 299 295
120 132 188 206 233 263 257 233 125 183 256 264 232 246 246 237 247 282 305 308 308 309 311 312 313 313 309 313 321 320 318 315 311 311 310 311 313 307 304 303 305 305 302 301
182 180 198 182 216 255 217 145 191 225 251 245 248 246 245 258 276 289 297 303 310 314 317 318 319 315 314 318 321 316 312 311 313 311 310 311 310 306 311 311 309 309 306 303
202 196 193 198 218 244 184 199 221 221 245 254 250 256 251 270 280 289 293 296 300 306 310 314 312 312 316 318 317 309 310 315 315 311 308 309 309 308 311 311 310 311 306 300
247 204 202 250 258 256 247 248 258 251 252 262 259 260 255 266 275 281 288 297 302 305 308 312 315 316 315 314 315 304 308 315 314 311 310 310 310 312 312 307 303 303 298 293
227 189 216 254 271 290 259 243 250 264 269 276 278 265 256 258 272 273 281 288 292 301 306 307 306 306 307 312 313 312 315 316 312 309 307 311 310 307 307 304 296 298 283 284
204 193 200 237 235 227 257 255 249 254 263 267 272 282 276 258 261 271 276 278 285 294 301 306 306 307 308 311 310 311 313 312 310 310 312 309 307 305 306 304 305 305 305 308